Weather History for KVCB - April, 2014

Change the Weather History Date:

Thursday, April 10, 2014

  Actual Average Record
Temperature  
Mean Temperature 64 °F -  
Max Temperature 82 °F 71 °F 93 °F (1951)
Min Temperature 46 °F 44 °F 34 °F (1974)
Degree Days  
Heating Degree Days 2    
Growing Degree Days 14 (Base 50)    
Moisture  
Dew Point 47 °F    
Average Humidity 58    
Maximum Humidity 90    
Minimum Humidity 23    
Precipitation  
Precipitation 0.00 in - - ()
Sea Level Pressure  
Sea Level Pressure 29.96 in    
Wind  
Wind Speed 2 mph (WNW)    
Max Wind Speed 9 mph    
Max Gust Speed -    
Visibility 10 miles    
Events      
Averages and records for this station are not official NWS values.
T = Trace of Precipitation, MM = Missing Value Source: NWS Daily Summary

Daily Weather History Graph

Daily Weather History Graph

Search for Another Location

Airport or City:

Trip Planner

Search our weather history database for the weather conditions in past years. The results will help you decide how hot, cold, wet, or windy it might be!

Date:

Astronomy

Apr. 10, 2014 Rise Set
Actual Time 6:39 AM PDT 7:39 PM PDT
Civil Twilight 6:12 AM PDT 8:06 PM PDT
Nautical Twilight 5:39 AM PDT 8:39 PM PDT
Astronomical Twilight 5:06 AM PDT 9:12 PM PDT
Moon 3:31 PM PDT (4/10) 4:01 AM PDT (4/10)
Length of Visible Light 13h 54m
Length of Day
13h 00m
Waxing Gibbous, 80% of the Moon is Illuminated
Apr 10
Waxing Gibbous
Apr 15
Full
Apr 22
Last Quarter
Apr 28
New
May 6
First Quarter

Hourly Weather History & Observations

Time (PDT) Temp. Dew Point Humidity Pressure Visibility Wind Dir Wind Speed Gust Speed Precip Events Conditions
12:53 AM 51.1 °F 45.0 °F 80% 29.99 in 10.0 mi Calm Calm - N/A   Clear
1:53 AM 50.0 °F 44.1 °F 80% 29.99 in 10.0 mi Calm Calm - N/A   Clear
2:53 AM 48.9 °F 45.0 °F 86% 29.99 in 10.0 mi Calm Calm - N/A   Clear
3:53 AM 48.9 °F 44.1 °F 83% 29.98 in 10.0 mi Calm Calm - N/A   Clear
4:53 AM 46.9 °F 44.1 °F 90% 29.98 in 10.0 mi Calm Calm - N/A   Clear
5:53 AM 46.0 °F 43.0 °F 89% 29.99 in 10.0 mi Calm Calm - N/A   Clear
7:53 AM 53.1 °F 46.0 °F 77% 30.01 in 10.0 mi Calm Calm - N/A   Clear
8:53 AM 59.0 °F 52.0 °F 78% 30.02 in 10.0 mi NNW 5.8 mph - N/A   Clear
9:53 AM 64.0 °F 50.0 °F 60% 30.02 in 10.0 mi North 5.8 mph - N/A   Clear
10:53 AM 69.1 °F 48.0 °F 47% 30.03 in 10.0 mi North 9.2 mph - N/A   Clear
11:53 AM 72.0 °F 48.9 °F 44% 30.02 in 10.0 mi NNW 8.1 mph - N/A   Clear
12:53 PM 75.9 °F 50.0 °F 40% 30.00 in 10.0 mi Variable 4.6 mph - N/A   Clear
1:53 PM 78.1 °F 46.9 °F 33% 29.97 in 10.0 mi Variable 4.6 mph - N/A   Clear
2:53 PM 79.0 °F 41.0 °F 26% 29.95 in 10.0 mi NE 4.6 mph - N/A   Clear
3:53 PM 80.1 °F 39.0 °F 23% 29.92 in 10.0 mi NE 4.6 mph - N/A   Clear
4:53 PM 81.0 °F 41.0 °F 24% 29.90 in 10.0 mi Calm Calm - N/A   Clear
5:53 PM 79.0 °F 44.1 °F 29% 29.88 in 10.0 mi WNW 6.9 mph - N/A   Clear
6:53 PM 77.0 °F 48.9 °F 37% 29.88 in 10.0 mi SW 4.6 mph - N/A   Clear
7:53 PM 73.0 °F 55.0 °F 53% 29.87 in 10.0 mi SSW 4.6 mph - N/A   Clear
8:53 PM 68.0 °F 52.0 °F 56% 29.89 in 10.0 mi SW 3.5 mph - N/A   Clear
9:53 PM 66.0 °F 51.1 °F 59% 29.91 in 10.0 mi SW 6.9 mph - N/A   Clear
10:53 PM 62.1 °F 51.1 °F 67% 29.90 in 10.0 mi SW 4.6 mph - N/A   Clear
11:53 PM 59.0 °F 51.1 °F 75% 29.90 in 10.0 mi SW 3.5 mph - N/A   Clear